| time (UTC) | temp C | wind direction | speed KPH | gust KPH | rain 1hr cm | rain 24hr cm | rain mn cm | humidity % | barometer mb |
| 20260507094617 | 11 | 52 | 6.4 | 0.0 | 0.00 | 0.00 | 0.00 | 86 | 1019.5 |
| 20260507093055 | 11 | 59 | 6.4 | 0.0 | 0.00 | 0.00 | 0.00 | 87 | 1019.6 |
| 20260507091604 | 11 | 63 | 11.3 | 0.0 | 0.00 | 0.00 | 0.00 | 87 | 1019.8 |
| 20260507090046 | 11 | 54 | 8.0 | 0.0 | 0.00 | 0.00 | 0.00 | 87 | 1020.0 |
| 20260507084543 | 11 | 33 | 6.4 | 0.0 | 0.00 | 0.00 | 0.00 | 87 | 1019.9 |
| 20260507083041 | 11 | 72 | 4.8 | 0.0 | 0.00 | 0.00 | 0.00 | 87 | 1019.9 |
| 20260507081539 | 11 | 48 | 4.8 | 0.0 | 0.00 | 0.00 | 0.00 | 87 | 1020.0 |
| 20260507080038 | 11 | 60 | 6.4 | 0.0 | 0.00 | 0.00 | 0.00 | 87 | 1020.0 |
| 20260507074544 | 11 | 35 | 3.2 | 0.0 | 0.00 | 0.00 | 0.00 | 88 | 1020.1 |
| 20260507073025 | 11 | 67 | 4.8 | 0.0 | 0.00 | 0.00 | 0.00 | 87 | 1020.1 |
| 20260507071525 | 12 | 46 | 6.4 | 0.0 | 0.00 | 0.00 | 0.00 | 87 | 1020.1 |
| 20260507070024 | 12 | 36 | 6.4 | 0.0 | 0.00 | 0.00 | 0.00 | 87 | 1020.1 |
| 20260507064523 | 12 | 33 | 4.8 | 0.0 | 0.00 | 0.00 | 0.00 | 87 | 1020.3 |
| 20260507063025 | 12 | 46 | 8.0 | 0.0 | 0.00 | 0.00 | 0.00 | 87 | 1020.3 |
| 20260507061520 | 11 | 76 | 3.2 | 0.0 | 0.00 | 0.00 | 0.00 | 87 | 1020.3 |
| 20260507060019 | 11 | 64 | 3.2 | 0.0 | 0.00 | 0.00 | 0.00 | 87 | 1020.5 |
| 20260507054518 | 11 | 67 | 1.6 | 0.0 | 0.00 | 0.00 | 0.00 | 87 | 1020.4 |
| 20260507053006 | 12 | 85 | 3.2 | 0.0 | 0.00 | 0.00 | 0.00 | 87 | 1020.6 |
| 20260507051505 | 12 | 17 | 6.4 | 0.0 | 0.00 | 0.00 | 0.00 | 87 | 1020.6 |
| 20260507050005 | 12 | 15 | 3.2 | 0.0 | 0.00 | 0.00 | 0.00 | 87 | 1020.7 |
| 20260507044504 | 12 | 46 | 4.8 | 0.0 | 0.00 | 0.00 | 0.00 | 87 | 1020.7 |
| 20260507043003 | 12 | 36 | 6.4 | 0.0 | 0.00 | 0.00 | 0.00 | 87 | 1020.6 |
| 20260507041501 | 12 | 22 | 6.4 | 0.0 | 0.00 | 0.00 | 0.00 | 87 | 1020.6 |
| 20260507040105 | 12 | 34 | 4.8 | 0.0 | 0.00 | 0.00 | 0.00 | 87 | 1020.6 |
| 20260507034602 | 12 | 13 | 3.2 | 0.0 | 0.00 | 0.00 | 0.00 | 87 | 1020.5 |
| 20260507033046 | 12 | 15 | 4.8 | 0.0 | 0.00 | 0.00 | 0.00 | 86 | 1020.6 |
| 20260507031542 | 12 | 346 | 3.2 | 0.0 | 0.00 | 0.00 | 0.00 | 86 | 1020.5 |
| 20260507030042 | 12 | 345 | 3.2 | 0.0 | 0.00 | 0.00 | 0.00 | 86 | 1020.4 |
| 20260507024553 | 12 | 341 | 3.2 | 0.0 | 0.00 | 0.00 | 0.00 | 86 | 1020.4 |
| 20260507023041 | 12 | 341 | 3.2 | 0.0 | 0.00 | 0.00 | 0.00 | 86 | 1020.4 |
| 20260507021547 | 12 | 341 | 1.6 | 0.0 | 0.00 | 0.00 | 0.00 | 86 | 1020.3 |
| 20260507020043 | 12 | 341 | 1.6 | 0.0 | 0.00 | 0.00 | 0.00 | 85 | 1020.5 |
| 20260507014543 | 12 | 338 | 1.6 | 0.0 | 0.00 | 0.00 | 0.00 | 86 | 1020.6 |
| 20260507013037 | 12 | 337 | 1.6 | 0.0 | 0.00 | 0.00 | 0.00 | 85 | 1020.7 |
| 20260507011543 | 12 | 337 | 1.6 | 0.0 | 0.00 | 0.00 | 0.00 | 85 | 1020.7 |
| 20260507010047 | 12 | 337 | 1.6 | 0.0 | 0.00 | 0.00 | 0.00 | 85 | 1020.7 |
| 20260507004537 | 12 | 337 | 0.0 | 0.0 | 0.00 | 0.00 | 0.00 | 85 | 1020.8 |
| 20260507003039 | 12 | 337 | 1.6 | 0.0 | 0.00 | 0.00 | 0.00 | 85 | 1020.9 |
| 20260507001543 | 12 | 337 | 1.6 | 0.0 | 0.00 | 0.00 | 0.00 | 85 | 1020.9 |
| 20260507000023 | 12 | 336 | 1.6 | 0.0 | 0.00 | 0.00 | 0.00 | 85 | 1021.0 |
| 20260506234521 | 12 | 336 | 4.8 | 0.0 | 0.00 | 0.00 | 0.00 | 85 | 1021.0 |
| 20260506233021 | 12 | 335 | 4.8 | 0.0 | 0.00 | 0.00 | 0.00 | 85 | 1021.0 |
| 20260506231523 | 13 | 313 | 6.4 | 0.0 | 0.00 | 0.00 | 0.00 | 84 | 1021.0 |
| 20260506230019 | 13 | 320 | 6.4 | 0.0 | 0.00 | 0.00 | 0.00 | 84 | 1021.1 |
| 20260506224521 | 13 | 316 | 8.0 | 0.0 | 0.00 | 0.00 | 0.00 | 84 | 1021.1 |
| 20260506223018 | 13 | 310 | 8.0 | 0.0 | 0.00 | 0.00 | 0.00 | 84 | 1021.3 |
| 20260506221518 | 13 | 300 | 6.4 | 0.0 | 0.00 | 0.00 | 0.00 | 84 | 1021.4 |
| 20260506220005 | 13 | 251 | 4.8 | 0.0 | 0.00 | 0.00 | 0.00 | 84 | 1021.3 |
| 20260506214502 | 13 | 251 | 4.8 | 0.0 | 0.00 | 0.00 | 0.00 | 84 | 1021.2 |
| 20260506213100 | 13 | 245 | 4.8 | 0.0 | 0.00 | 0.00 | 0.00 | 85 | 1021.3 |
| 20260506211559 | 13 | 250 | 4.8 | 0.0 | 0.00 | 0.00 | 0.00 | 85 | 1021.1 |
| 20260506210054 | 13 | 249 | 4.8 | 0.0 | 0.00 | 0.00 | 0.00 | 85 | 1021.2 |
| 20260506204555 | 13 | 247 | 4.8 | 0.0 | 0.00 | 0.00 | 0.00 | 85 | 1021.1 |
| 20260506203052 | 13 | 243 | 3.2 | 0.0 | 0.00 | 0.00 | 0.00 | 85 | 1021.1 |
| 20260506201549 | 13 | 275 | 4.8 | 0.0 | 0.00 | 0.00 | 0.00 | 85 | 1021.1 |
| 20260506200034 | 13 | 250 | 4.8 | 0.0 | 0.00 | 0.00 | 0.00 | 86 | 1021.1 |
| 20260506194537 | 12 | 250 | 4.8 | 0.0 | 0.00 | 0.00 | 0.00 | 86 | 1021.0 |
| 20260506193033 | 12 | 235 | 6.4 | 0.0 | 0.00 | 0.00 | 0.00 | 86 | 1021.0 |
| 20260506191532 | 12 | 248 | 8.0 | 0.0 | 0.00 | 0.00 | 0.00 | 86 | 1021.0 |
| 20260506190028 | 12 | 244 | 8.0 | 0.0 | 0.00 | 0.00 | 0.00 | 86 | 1020.9 |
| 20260506184526 | 12 | 238 | 6.4 | 0.0 | 0.00 | 0.00 | 0.00 | 86 | 1020.8 |
| 20260506183025 | 12 | 265 | 6.4 | 0.0 | 0.00 | 0.00 | 0.00 | 86 | 1020.7 |
| 20260506181527 | 12 | 241 | 6.4 | 0.0 | 0.00 | 0.00 | 0.00 | 86 | 1020.7 |
| 20260506180006 | 12 | 247 | 6.4 | 0.0 | 0.00 | 0.00 | 0.00 | 86 | 1020.6 |
| 20260506174505 | 12 | 242 | 9.7 | 0.0 | 0.00 | 0.00 | 0.00 | 86 | 1020.4 |
| 20260506173118 | 12 | 265 | 6.4 | 0.0 | 0.00 | 0.00 | 0.00 | 86 | 1020.4 |
| 20260506171551 | 12 | 240 | 8.0 | 0.0 | 0.00 | 0.00 | 0.00 | 86 | 1020.3 |
| 20260506170050 | 12 | 275 | 8.0 | 0.0 | 0.00 | 0.00 | 0.00 | 86 | 1020.3 |
| 20260506164550 | 12 | 302 | 9.7 | 0.0 | 0.00 | 0.00 | 0.00 | 86 | 1020.3 |
| 20260506163053 | 12 | 281 | 9.7 | 0.0 | 0.00 | 0.00 | 0.00 | 86 | 1020.1 |
| 20260506161547 | 12 | 265 | 8.0 | 0.0 | 0.00 | 0.00 | 0.00 | 86 | 1019.8 |
| 20260506160046 | 12 | 265 | 6.4 | 0.0 | 0.00 | 0.00 | 0.00 | 86 | 1019.6 |
| 20260506154544 | 12 | 259 | 8.0 | 0.0 | 0.00 | 0.00 | 0.00 | 86 | 1019.4 |
| 20260506153040 | 12 | 256 | 3.2 | 0.0 | 0.00 | 0.00 | 0.00 | 86 | 1019.3 |
| 20260506151531 | 12 | 210 | 4.8 | 0.0 | 0.00 | 0.00 | 0.00 | 86 | 1019.5 |
| 20260506150029 | 12 | 291 | 4.8 | 0.0 | 0.00 | 0.00 | 0.00 | 86 | 1019.5 |
| 20260506144549 | 11 | 283 | 4.8 | 0.0 | 0.00 | 0.00 | 0.00 | 86 | 1019.6 |
| 20260506143028 | 11 | 287 | 6.4 | 0.0 | 0.00 | 0.00 | 0.00 | 86 | 1019.6 |
| 20260506141527 | 11 | 291 | 3.2 | 0.0 | 0.00 | 0.00 | 0.00 | 86 | 1019.3 |
| 20260506140040 | 11 | 329 | 3.2 | 0.0 | 0.00 | 0.00 | 0.00 | 86 | 1019.1 |
| 20260506134531 | 11 | 280 | 3.2 | 0.0 | 0.00 | 0.00 | 0.00 | 86 | 1018.8 |
| 20260506133012 | 11 | 275 | 1.6 | 0.0 | 0.00 | 0.00 | 0.00 | 86 | 1018.8 |
| 20260506131511 | 11 | 130 | 1.6 | 0.0 | 0.00 | 0.00 | 0.00 | 86 | 1018.6 |
| 20260506130010 | 11 | 130 | 0.0 | 0.0 | 0.00 | 0.00 | 0.00 | 86 | 1018.6 |
| 20260506124509 | 11 | 129 | 1.6 | 0.0 | 0.00 | 0.00 | 0.00 | 86 | 1018.5 |
| 20260506123009 | 11 | 51 | 0.0 | 0.0 | 0.00 | 0.00 | 0.00 | 86 | 1018.3 |
| 20260506121508 | 11 | 43 | 3.2 | 0.0 | 0.00 | 0.00 | 0.00 | 86 | 1018.4 |
| 20260506120011 | 11 | 60 | 1.6 | 0.0 | 0.00 | 0.00 | 0.00 | 86 | 1018.6 |
| 20260506114512 | 11 | 60 | 1.6 | 0.0 | 0.00 | 0.00 | 0.00 | 86 | 1018.3 |
| 20260506113004 | 11 | 64 | 4.8 | 0.0 | 0.00 | 0.00 | 0.00 | 86 | 1018.4 |
| 20260506111503 | 12 | 337 | 6.4 | 0.0 | 0.00 | 0.00 | 0.00 | 86 | 1018.2 |
| 20260506110104 | 11 | 287 | 3.2 | 0.0 | 0.00 | 0.00 | 0.00 | 86 | 1018.3 |
| 20260506104559 | 11 | 348 | 4.8 | 0.0 | 0.00 | 0.00 | 0.00 | 86 | 1018.1 |
| 20260506103048 | 12 | 312 | 6.4 | 0.0 | 0.00 | 0.00 | 0.00 | 86 | 1017.8 |
| 20260506101548 | 12 | 341 | 0.0 | 0.0 | 0.00 | 0.00 | 0.00 | 86 | 1017.6 |
| 20260506100103 | 12 | 310 | 6.4 | 0.0 | 0.00 | 0.00 | 0.00 | 86 | 1017.7 |